When you browse on this site, cookies collect data to enhance your experience and personalize the content and advertising you see.
Visit our Privacy Policy to learn more. By continuing to use the site, you agree to this use of cookies and data.
  • En España
  • Lista de países
  • Para 7 días
  • Temperatura del agua
  • El tiempo en el mapa
  • Informadores
  • user-avatar
    Iniciar sesión

    Tiempo cada hora Mazatenango

    Hoy, 20 Febrero, Jueves

    Tiempo Temperatura Precipitaciones Viento Presión Humedad
    00:00 +26°C° 0 mm 2 mps 727 mmHg 66%
    01:00 +25°C° 0 mm 2 mps 727 mmHg 65%
    02:00 +25°C° 0 mm 2 mps 726 mmHg 65%
    03:00 +25°C° 0 mm 1 mps 726 mmHg 64%
    04:00 +25°C° 0 mm 1 mps 726 mmHg 62%
    05:00 +25°C° 0 mm 1 mps 727 mmHg 59%
    06:00 +25°C° 0 mm 2 mps 727 mmHg 56%
    07:00 +27°C° 0 mm 1 mps 727 mmHg 49%
    08:00 +30°C° 0 mm 1 mps 728 mmHg 42%
    09:00 +32°C° 0 mm 1 mps 728 mmHg 35%
    10:00 +34°C° 0 mm 1 mps 728 mmHg 34%
    11:00 +37°C° 0 mm 2 mps 728 mmHg 32%
    12:00 +38°C° 0 mm 3 mps 728 mmHg 31%
    13:00 +38°C° 0 mm 3 mps 727 mmHg 33%
    14:00 +37°C° 0 mm 3 mps 726 mmHg 36%
    15:00 +37°C° 0 mm 4 mps 726 mmHg 38%
    16:00 +35°C° 0 mm 3 mps 726 mmHg 47%
    17:00 +32°C° 0 mm 2 mps 726 mmHg 55%
    18:00 +29°C° 0 mm 2 mps 726 mmHg 64%
    19:00 +28°C° 0 mm 1 mps 727 mmHg 67%
    20:00 +27°C° 0 mm 1 mps 728 mmHg 71%
    21:00 +26°C° 0 mm 1 mps 729 mmHg 74%
    22:00 +26°C° 0 mm 1 mps 729 mmHg 71%
    23:00 +26°C° 0 mm 1 mps 729 mmHg 68%

    Mañana, 21 Febrero, Viernes

    Tiempo Temperatura Precipitaciones Viento Presión Humedad
    00:00 +25°C° 0 mm 2 mps 729 mmHg 66%
    07:00 +27°C° 0 mm 1 mps 729 mmHg 54%
    08:00 +30°C° 0 mm 1 mps 729 mmHg 47%
    09:00 +32°C° 0 mm 1 mps 730 mmHg 39%
    10:00 +34°C° 0 mm 1 mps 730 mmHg 36%
    11:00 +37°C° 0 mm 2 mps 730 mmHg 32%
    12:00 +39°C° 0 mm 2 mps 729 mmHg 28%
    13:00 +38°C° 0 mm 3 mps 729 mmHg 32%
    14:00 +37°C° 0 mm 3 mps 728 mmHg 36%
    15:00 +36°C° 0 mm 4 mps 727 mmHg 40%
    16:00 +34°C° 0.1 mm 3 mps 727 mmHg 48%
    17:00 +31°C° 0.1 mm 2 mps 727 mmHg 57%
    18:00 +29°C° 0.1 mm 1 mps 727 mmHg 65%
    19:00 +27°C° 0 mm 1 mps 728 mmHg 67%
    20:00 +26°C° 0 mm 1 mps 729 mmHg 69%
    21:00 +25°C° 0 mm 2 mps 729 mmHg 71%
    22:00 +25°C° 0 mm 2 mps 729 mmHg 68%
    23:00 +25°C° 0 mm 2 mps 729 mmHg 64%

    Pasado mañana, 22 Febrero, Sábado

    Tiempo Temperatura Precipitaciones Viento Presión Humedad
    00:00 +25°C° 0 mm 2 mps 729 mmHg 60%
    01:00 +25°C° 0 mm 2 mps 729 mmHg 59%
    02:00 +24°C° 0 mm 2 mps 728 mmHg 57%
    03:00 +24°C° 0 mm 2 mps 728 mmHg 56%
    04:00 +24°C° 0 mm 2 mps 728 mmHg 56%
    05:00 +24°C° 0 mm 2 mps 728 mmHg 57%
    06:00 +24°C° 0 mm 2 mps 729 mmHg 57%
    07:00 +27°C° 0 mm 1 mps 729 mmHg 51%
    08:00 +29°C° 0 mm 1 mps 730 mmHg 45%
    09:00 +32°C° 0 mm 1 mps 730 mmHg 39%
    10:00 +34°C° 0 mm 2 mps 730 mmHg 36%
    11:00 +36°C° 0 mm 2 mps 730 mmHg 33%
    12:00 +37°C° 0 mm 3 mps 730 mmHg 30%
    13:00 +37°C° 0 mm 3 mps 729 mmHg 34%
    14:00 +36°C° 0 mm 4 mps 728 mmHg 39%
    15:00 +35°C° 0 mm 4 mps 727 mmHg 44%
    16:00 +33°C° 0.1 mm 3 mps 727 mmHg 53%
    17:00 +30°C° 0.1 mm 2 mps 727 mmHg 62%
    18:00 +28°C° 0.1 mm 2 mps 728 mmHg 71%
    19:00 +27°C° 0 mm 2 mps 728 mmHg 73%
    20:00 +26°C° 0 mm 2 mps 729 mmHg 76%
    21:00 +25°C° 0 mm 2 mps 729 mmHg 78%
    22:00 +25°C° 0 mm 2 mps 729 mmHg 75%
    23:00 +25°C° 0 mm 2 mps 729 mmHg 72%

    23 Febrero, Domingo

    Tiempo Temperatura Precipitaciones Viento Presión Humedad
    00:00 +25°C° 0 mm 2 mps 729 mmHg 68%
    01:00 +25°C° 0 mm 2 mps 728 mmHg 66%
    02:00 +24°C° 0 mm 2 mps 728 mmHg 63%
    03:00 +24°C° 0 mm 2 mps 727 mmHg 60%
    04:00 +24°C° 0 mm 1 mps 727 mmHg 58%
    05:00 +24°C° 0 mm 1 mps 728 mmHg 57%
    06:00 +24°C° 0 mm 1 mps 728 mmHg 56%
    07:00 +27°C° 0 mm 1 mps 729 mmHg 50%
    08:00 +29°C° 0 mm 1 mps 729 mmHg 44%
    09:00 +32°C° 0 mm 1 mps 730 mmHg 39%
    10:00 +34°C° 0 mm 2 mps 729 mmHg 37%
    11:00 +36°C° 0 mm 2 mps 729 mmHg 36%
    12:00 +37°C° 0 mm 3 mps 728 mmHg 34%
    13:00 +36°C° 0.1 mm 3 mps 728 mmHg 41%
    14:00 +35°C° 0.1 mm 3 mps 727 mmHg 47%
    15:00 +33°C° 0.1 mm 4 mps 726 mmHg 53%
    16:00 +31°C° 0.1 mm 3 mps 726 mmHg 60%
    17:00 +29°C° 0.1 mm 2 mps 726 mmHg 67%
    18:00 +28°C° 0.1 mm 2 mps 726 mmHg 74%
    19:00 +27°C° 0 mm 1 mps 727 mmHg 77%
    20:00 +26°C° 0 mm 1 mps 727 mmHg 81%
    21:00 +25°C° 0 mm 1 mps 727 mmHg 84%
    22:00 +24°C° 0 mm 1 mps 727 mmHg 81%
    23:00 +24°C° 0 mm 1 mps 727 mmHg 79%

    24 Febrero, Lunes

    Tiempo Temperatura Precipitaciones Viento Presión Humedad
    00:00 +24°C° 0 mm 1 mps 727 mmHg 76%
    01:00 +24°C° 0 mm 1 mps 726 mmHg 73%
    02:00 +24°C° 0 mm 1 mps 726 mmHg 69%
    03:00 +23°C° 0 mm 1 mps 726 mmHg 66%
    04:00 +23°C° 0 mm 1 mps 726 mmHg 65%
    05:00 +23°C° 0 mm 1 mps 726 mmHg 64%
    06:00 +23°C° 0 mm 1 mps 726 mmHg 63%
    07:00 +26°C° 0 mm 1 mps 727 mmHg 59%
    08:00 +28°C° 0 mm 1 mps 728 mmHg 55%
    09:00 +30°C° 0 mm 1 mps 728 mmHg 51%
    10:00 +32°C° 0 mm 2 mps 728 mmHg 47%
    11:00 +34°C° 0 mm 3 mps 727 mmHg 43%
    12:00 +36°C° 0 mm 3 mps 727 mmHg 40%
    13:00 +35°C° 0 mm 3 mps 726 mmHg 45%
    14:00 +33°C° 0 mm 3 mps 725 mmHg 51%
    15:00 +31°C° 0 mm 3 mps 724 mmHg 56%
    16:00 +30°C° 0 mm 3 mps 725 mmHg 62%
    17:00 +29°C° 0 mm 2 mps 725 mmHg 68%
    18:00 +28°C° 0 mm 2 mps 725 mmHg 74%
    19:00 +27°C° 0 mm 1 mps 726 mmHg 78%
    20:00 +26°C° 0 mm 1 mps 726 mmHg 82%
    21:00 +25°C° 0 mm 1 mps 726 mmHg 87%
    22:00 +24°C° 0 mm 1 mps 726 mmHg 85%
    23:00 +24°C° 0 mm 1 mps 726 mmHg 83%

    25 Febrero, Martes

    Tiempo Temperatura Precipitaciones Viento Presión Humedad
    00:00 +24°C° 0 mm 1 mps 726 mmHg 81%
    01:00 +23°C° 0 mm 1 mps 726 mmHg 77%
    02:00 +23°C° 0 mm 1 mps 725 mmHg 74%
    03:00 +23°C° 0 mm 1 mps 725 mmHg 71%
    04:00 +23°C° 0 mm 1 mps 725 mmHg 68%
    05:00 +23°C° 0 mm 1 mps 725 mmHg 66%
    06:00 +22°C° 0 mm 1 mps 725 mmHg 63%
    07:00 +25°C° 0 mm 1 mps 726 mmHg 59%
    08:00 +28°C° 0 mm 1 mps 727 mmHg 55%
    09:00 +30°C° 0 mm 1 mps 727 mmHg 50%
    10:00 +32°C° 0 mm 2 mps 727 mmHg 47%
    11:00 +34°C° 0 mm 3 mps 727 mmHg 44%
    12:00 +36°C° 0 mm 3 mps 726 mmHg 41%
    13:00 +35°C° 0 mm 3 mps 726 mmHg 46%
    14:00 +33°C° 0 mm 3 mps 725 mmHg 52%
    15:00 +31°C° 0 mm 3 mps 724 mmHg 57%
    16:00 +30°C° 0.1 mm 3 mps 724 mmHg 61%
    17:00 +29°C° 0.1 mm 2 mps 725 mmHg 65%
    18:00 +28°C° 0.1 mm 2 mps 725 mmHg 69%
    19:00 +27°C° 0 mm 1 mps 725 mmHg 73%
    20:00 +26°C° 0 mm 1 mps 726 mmHg 77%
    21:00 +25°C° 0 mm 1 mps 726 mmHg 81%
    22:00 +24°C° 0 mm 1 mps 726 mmHg 81%
    23:00 +24°C° 0 mm 1 mps 726 mmHg 81%
    Mostrar más